Location: Observatoire POLARIS
(46.3550°N, 73.3861°W)
Time: 16:41:48
(UTC-05:00)

N. Korean satellite - Visible Passes

Search period start: 18 November 2017 00:00
Search period end: 28 November 2017 00:00
Orbit: 460 x 515 km, 97.2° (Epoch: 17 November)

Date Brightness Start Highest point End Pass type
(mag) Time Alt. Az. Time Alt. Az. Time Alt. Az.
18 Nov 7.1 17:15:35 10° SE 17:18:45 33° ENE 17:22:00 10° N visible
18 Nov 9.5 18:50:05 10° SW 18:52:25 17° W 18:54:47 10° NW visible
19 Nov 8.8 06:13:18 10° NNE 06:16:42 32° E 06:20:06 10° SSE visible
19 Nov 7.9 16:52:54 10° ESE 16:55:27 19° ENE 16:58:02 10° NNE visible
19 Nov 8.5 18:25:39 10° SSW 18:28:46 31° W 18:31:59 10° NNW visible
20 Nov 9.8 05:50:26 10° NE 05:53:05 18° E 05:55:44 10° SE visible
20 Nov 7.0 18:01:45 10° S 18:05:13 61° W 18:08:47 10° NNW visible
21 Nov 6.4 17:38:15 10° SSE 17:41:44 66° ENE 17:45:18 10° N visible
22 Nov 7.2 17:15:07 10° SE 17:18:20 34° ENE 17:21:37 10° N visible
22 Nov 9.5 18:49:36 10° SW 18:51:59 17° W 18:54:24 10° NW visible
23 Nov 8.8 06:12:52 10° NNE 06:16:17 32° E 06:19:42 10° SSE visible
23 Nov 7.9 16:52:26 10° ESE 16:55:01 19° ENE 16:57:37 10° NNE visible
23 Nov 8.4 18:25:09 10° SSW 18:28:20 31° W 18:31:35 10° NNW visible
24 Nov 9.8 05:50:00 10° NE 05:52:39 18° E 05:55:19 10° SE visible
24 Nov 7.0 18:01:15 10° S 18:04:44 62° W 18:08:20 10° NNW visible
25 Nov 6.4 17:37:43 10° SSE 17:41:15 66° ENE 17:44:52 10° N visible
26 Nov 7.3 06:35:38 10° NNE 06:39:23 62° E 06:43:06 10° S visible
26 Nov 7.2 17:14:34 10° SE 17:17:49 34° ENE 17:21:09 10° N visible
26 Nov 9.5 18:49:02 10° SW 18:51:28 17° W 18:53:57 10° NW visible
27 Nov 8.7 06:12:22 10° NNE 06:15:48 32° E 06:19:13 10° SSE visible
27 Nov 7.9 16:51:52 10° ESE 16:54:29 19° ENE 16:57:08 10° NNE visible
27 Nov 8.4 18:24:34 10° SSW 18:27:48 32° W 18:31:06 10° NNW visible
